Overview Statistics Trail Chart Weather Telemetry Raw packets
 

This is the latest recevied weather packets stored in our database for station/object G4WLC-1. If no packets are shown the sender has not sent any weather packets the latest 10 day(s).

<< 72 73 74 75 76 77 78 >>
Time Temp. Humidity Pressure Rain* Wind** Luminosity Snow
1788147734 11.67° C 95% 1005.8 hPa 0.25 mm - - -
1788147434 11.67° C 95% 1005.8 hPa 0.25 mm - - -
1788147134 11.67° C 95% 1005.8 hPa 0.25 mm - - -
1788146834 11.67° C 95% 1005.8 hPa 0.25 mm - - -
1788146534 11.67° C 95% 1005.7 hPa 0.25 mm - - -
1788146234 11.67° C 95% 1005.7 hPa 0.25 mm - - -
1788145934 11.11° C 95% 1005.6 hPa 0.25 mm - - -
1788145634 11.11° C 95% 1005.6 hPa 0 mm - - -
1788145346 11.11° C 94% 1005.6 hPa 0 mm - - -
1788145034 11.11° C 94% 1005.5 hPa 0 mm - - -
1788144734 11.11° C 94% 1005.6 hPa 0 mm - - -
1788144434 11.11° C 94% 1005.5 hPa 0 mm - - -
1788144134 11.11° C 94% 1005.4 hPa 0 mm - - -
1788143834 11.67° C 94% 1005.4 hPa 0 mm - - -
1788143534 11.67° C 94% 1005.5 hPa 0 mm - - -
1788143234 11.67° C 94% 1005.2 hPa 0 mm - - -
1788142934 11.67° C 94% 1005.2 hPa 0 mm - - -
1788142634 11.67° C 94% 1005.3 hPa 0 mm - - -
1788142334 11.67° C 94% 1005.2 hPa 0 mm - - -
1788142034 11.67° C 94% 1005.2 hPa 0 mm - - -
1788141734 11.67° C 94% 1005.1 hPa 0 mm - - -
1788141434 11.67° C 94% 1005.1 hPa 0.25 mm - - -
1788141134 11.67° C 94% 1005.1 hPa 0.51 mm - - -
1788140834 12.22° C 94% 1005 hPa 1.02 mm - - -
1788140534 12.22° C 94% 1005 hPa 1.78 mm - - -

* Rain latest hour (hover to see other rain measurements)
** Current wind speed in m/s (hover to see current wind gust speed)